CAPE
0 0 0 0 0 0 0 0 0 0 0 0 0 0 0 0 0 0 0 0 0 0 0 0 0 36 222 421 454 544 841 936 968 1056 1009 1031 909 889 990 1079 950 865 883 861 771 692 474 314 252
0 0 0 0 0 0 0 0 0 0 0 0 0 0 0 0 0 0 0 0 0 0 0 0 0 1 0 1 1 23 221 382 441 498 680 774 832 974 894 817 780 806 782 772 763 743 633 489 367
0 0 0 0 0 0 0 0 0 0 0 0 0 0 0 0 0 0 0 0 0 0 0 0 0 0 0 0 0 0 0 0 1 23 59 65 123 341 575 630 631 587 627 685 678 551 666 521 558
0 0 0 0 0 0 0 0 0 0 0 0 0 0 0 0 0 0 0 0 0 0 0 0 0 0 0 0 0 0 0 0 0 0 0 1 5 4 6 182 350 454 491 565 594 617 538 488 406
0 0 0 0 0 0 0 0 0 0 0 0 0 0 0 0 0 0 0 0 0 0 0 0 0 0 0 0 0 0 0 0 0 0 0 0 1 1 1 5 4 67 261 388 471 503 510 448 439
0 0 0 0 0 0 0 0 0 0 0 0 0 0 0 0 0 0 0 0 0 0 0 0 0 0 0 0 0 0 0 0 0 0 0 0 0 0 1 0 1 3 7 78 237 277 313 322 311
0 0 0 0 0 0 0 0 0 0 0 0 0 0 0 0 0 0 0 0 0 0 0 0 0 0 0 0 0 0 0 0 0 0 0 0 0 0 0 0 0 0 0 0 0 32 140 148 250
0 0 0 0 0 0 0 0 0 0 0 0 0 0 0 0 0 0 0 0 0 0 0 0 0 0 0 0 0 0 0 0 0 0 0 0 0 0 0 0 0 0 0 0 0 1 3 29 161
0 0 0 0 0 0 0 0 0 0 0 0 0 0 0 0 0 0 0 0 0 0 0 0 0 0 0 0 0 0 0 0 0 0 0 0 0 0 0 0 0 0 0 0 0 0 0 0 0
0 0 0 0 0 0 0 0 0 0 0 0 0 0 0 0 0 0 0 0 0 0 0 0 0 0 0 0 0 0 0 0 0 0 0 0 0 0 0 0 0 0 0 0 0 0 0 0 0
0 0 0 0 0 0 0 0 0 0 0 0 0 0 0 0 0 0 0 0 0 0 0 0 0 0 0 0 0 0 0 0 0 0 0 0 0 0 0 0 0 0 0 0 0 0 0 0 0
0 0 0 0 0 0 0 0 0 0 0 0 0 0 0 0 0 0 0 0 0 0 0 0 0 0 0 0 0 0 0 0 0 0 0 0 0 0 0 0 0 0 0 0 0 0 0 0 0
0 0 0 0 0 0 0 0 0 0 0 0 0 0 0 0 0 0 0 0 0 0 0 0 0 0 0 0 0 0 0 0 0 0 0 0 0 0 0 0 0 0 0 0 0 0 0 0 0
0 0 0 0 0 0 0 0 0 0 0 0 0 0 0 0 0 0 0 0 0 0 0 0 0 0 0 0 0 0 0 0 0 0 0 0 0 0 0 0 0 0 0 0 0 0 0 0 0
0 0 0 0 0 0 0 0 0 0 0 0 0 0 0 0 0 0 0 0 0 0 0 0 0 0 0 0 0 0 0 0 0 0 0 0 0 0 0 0 0 0 0 0 0 0 0 0 0
0 0 0 0 0 0 0 0 0 0 0 0 0 0 0 0 0 0 0 0 0 0 0 0 0 0 0 0 0 0 0 0 0 0 0 0 0 0 0 0 0 0 0 0 0 0 0 0 0
0 0 0 0 0 0 0 0 0 0 0 0 0 0 0 0 0 0 0 0 0 0 0 0 0 0 0 0 0 0 0 0 0 0 0 0 0 0 0 0 0 0 0 0 0 0 0 0 0
0 0 0 0 0 0 0 0 0 0 0 0 0 0 0 0 0 0 0 0 0 0 0 0 0 0 0 0 0 0 0 0 0 0 0 0 0 0 0 0 0 0 0 0 0 0 0 0 1
0 0 0 0 0 0 0 0 0 0 0 0 0 0 0 0 0 0 0 0 0 0 0 0 0 0 0 0 0 0 0 0 0 0 0 0 0 0 0 0 0 0 0 0 0 0 0 0 0
0 0 0 0 0 0 0 0 0 0 0 0 0 0 0 0 0 0 0 0 0 0 0 0 0 0 0 0 0 0 0 0 0 0 0 0 0 0 0 0 0 0 0 0 0 0 1 2 5
0 0 0 0 0 0 0 0 0 0 0 0 0 0 0 0 0 0 0 0 0 0 0 0 0 0 0 0 0 0 0 0 0 0 0 0 0 0 0 0 0 0 0 0 0 0 0 0 0
0 0 0 0 0 0 0 0 0 0 0 0 0 0 0 0 0 0 0 0 0 0 0 0 0 0 0 0 0 0 0 0 0 0 0 0 0 0 0 0 0 0 0 0 0 0 0 0 0
0 0 0 0 0 0 0 0 0 0 0 0 0 0 0 0 0 0 0 0 0 0 0 0 0 0 0 0 0 0 0 0 0 0 0 0 0 0 0 0 0 0 0 0 0 0 0 1 1
0 0 0 0 0 0 0 0 0 0 0 0 0 0 0 0 0 0 0 0 0 0 0 0 0 0 0 0 0 0 0 0 0 0 0 0 0 0 0 0 0 0 0 0 0 0 1 0 0
0 0 0 0 0 0 0 0 0 0 0 0 0 0 0 0 0 0 0 0 0 0 0 0 0 0 0 0 0 0 0 0 0 0 0 0 0 0 0 0 0 0 0 0 0 0 0 0 0
0 0 0 0 0 0 0 0 0 0 0 0 0 0 0 0 0 0 0 0 0 0 0 0 0 0 0 0 0 0 0 0 0 0 0 0 0 0 0 0 0 0 0 0 0 0 0 5 0
0 0 0 0 0 0 0 0 0 0 0 0 0 0 0 0 0 0 0 0 0 0 0 0 0 0 0 0 0 0 0 0 0 0 0 0 0 0 0 0 0 0 0 0 0 0 0 0 0
0 0 0 0 0 0 0 0 0 0 0 0 0 0 0 0 0 0 0 0 0 0 0 0 0 0 0 0 0 0 0 0 0 0 0 0 0 0 0 0 0 0 0 0 0 0 0 0 1
0 0 0 0 0 0 0 0 0 0 0 0 0 0 0 0 0 0 0 0 0 0 0 0 0 0 0 0 0 0 0 0 0 0 0 0 0 0 0 0 0 0 0 0 1 1 1 1 1
0 0 0 0 0 0 0 0 0 0 0 0 0 0 0 0 0 0 0 0 0 0 0 0 0 0 0 0 0 0 0 0 0 0 0 0 0 0 0 0 0 0 0 0 0 1 2 2 1
CIN
-0 -0 -0 -0 -0 -0 -0 -0 -0 -0 -0 -0 -0 -0 -0 -0 -0 -0 -0 -0 -0 -0 -0 -0 -0 -227 -146 -39 -35 -16 -0 -0 -0 -0 -0 -0 -0 -0 -0 -0 -1 -0 -0 -0 -0 -0 -14 -55 -85
-0 -0 -0 -0 -0 -0 -0 -0 -0 -0 -0 -0 -0 -0 -0 -0 -0 -0 -0 -0 -0 -0 -0 -0 -0 -0 -0 -0 -0 -174 -143 -50 -24 -9 -1 -0 -0 -0 -0 -0 -1 -0 -0 -0 -0 -0 -0 -3 -31
-0 -0 -0 -0 -0 -0 -0 -0 -0 -0 -0 -0 -0 -0 -0 -0 -0 -0 -0 -0 -0 -0 -0 -0 -0 -0 -0 -0 -0 -0 -0 -0 -43 -225 -248 -243 -181 -54 -3 -0 -0 -0 -0 -0 -0 -0 -0 -0 -1
-0 -0 -0 -0 -0 -0 -0 -0 -0 -0 -0 -0 -0 -0 -0 -0 -0 -0 -0 -0 -0 -0 -0 -0 -0 -0 -0 -0 -0 -0 -0 -0 -0 -0 -0 -0 -0 -0 -5 -130 -46 -7 -0 -0 -0 -0 -1 -5 -6
-0 -0 -0 -0 -0 -0 -0 -0 -0 -0 -0 -0 -0 -0 -0 -0 -0 -0 -0 -0 -0 -0 -0 -0 -0 -0 -0 -0 -0 -0 -0 -0 -0 -0 -0 -0 -0 -0 -0 -0 -0 -204 -68 -12 -1 -0 -0 -1 -5
-0 -0 -0 -0 -0 -0 -0 -0 -0 -0 -0 -0 -0 -0 -0 -0 -0 -0 -0 -0 -0 -0 -0 -0 -0 -0 -0 -0 -0 -0 -0 -0 -0 -0 -0 -0 -0 -0 -0 -0 -0 -0 -0 -119 -79 -37 -12 -3 -5
-0 -0 -0 -0 -0 -0 -0 -0 -0 -0 -0 -0 -0 -0 -0 -0 -0 -0 -0 -0 -0 -0 -0 -0 -0 -0 -0 -0 -0 -0 -0 -0 -0 -0 -0 -0 -0 -0 -0 -0 -0 -0 -0 -0 -0 -199 -98 -68 -19
-0 -0 -0 -0 -0 -0 -0 -0 -0 -0 -0 -0 -0 -0 -0 -0 -0 -0 -0 -0 -0 -0 -0 -0 -0 -0 -0 -0 -0 -0 -0 -0 -0 -0 -0 -0 -0 -0 -0 -0 -0 -0 -0 -0 -0 -0 -0 -198 -65
-0 -0 -0 -0 -0 -0 -0 -0 -0 -0 -0 -0 -0 -0 -0 -0 -0 -0 -0 -0 -0 -0 -0 -0 -0 -0 -0 -0 -0 -0 -0 -0 -0 -0 -0 -0 -0 -0 -0 -0 -0 -0 -0 -0 -0 -0 -0 -0 -0
-0 -0 -0 -0 -0 -0 -0 -0 -0 -0 -0 -0 -0 -0 -0 -0 -0 -0 -0 -0 -0 -0 -0 -0 -0 -0 -0 -0 -0 -0 -0 -0 -0 -0 -0 -0 -0 -0 -0 -0 -0 -0 -0 -0 -0 -0 -0 -0 -0
-0 -0 -0 -0 -0 -0 -0 -0 -0 -0 -0 -0 -0 -0 -0 -0 -0 -0 -0 -0 -0 -0 -0 -0 -0 -0 -0 -0 -0 -0 -0 -0 -0 -0 -0 -0 -0 -0 -0 -0 -0 -0 -0 -0 -0 -0 -0 -0 -0
-0 -0 -0 -0 -0 -0 -0 -0 -0 -0 -0 -0 -0 -0 -0 -0 -0 -0 -0 -0 -0 -0 -0 -0 -0 -0 -0 -0 -0 -0 -0 -0 -0 -0 -0 -0 -0 -0 -0 -0 -0 -0 -0 -0 -0 -0 -0 -0 -0
-0 -0 -0 -0 -0 -0 -0 -0 -0 -0 -0 -0 -0 -0 -0 -0 -0 -0 -0 -0 -0 -0 -0 -0 -0 -0 -0 -0 -0 -0 -0 -0 -0 -0 -0 -0 -0 -0 -0 -0 -0 -0 -0 -0 -0 -0 -0 -0 -0
-0 -0 -0 -0 -0 -0 -0 -0 -0 -0 -0 -0 -0 -0 -0 -0 -0 -0 -0 -0 -0 -0 -0 -0 -0 -0 -0 -0 -0 -0 -0 -0 -0 -0 -0 -0 -0 -0 -0 -0 -0 -0 -0 -0 -0 -0 -0 -0 -0
-0 -0 -0 -0 -0 -0 -0 -0 -0 -0 -0 -0 -0 -0 -0 -0 -0 -0 -0 -0 -0 -0 -0 -0 -0 -0 -0 -0 -0 -0 -0 -0 -0 -0 -0 -0 -0 -0 -0 -0 -0 -0 -0 -0 -0 -0 -0 -0 -0
-0 -0 -0 -0 -0 -0 -0 -0 -0 -0 -0 -0 -0 -0 -0 -0 -0 -0 -0 -0 -0 -0 -0 -0 -0 -0 -0 -0 -0 -0 -0 -0 -0 -0 -0 -0 -0 -0 -0 -0 -0 -0 -0 -0 -0 -0 -0 -0 -0
-0 -0 -0 -0 -0 -0 -0 -0 -0 -0 -0 -0 -0 -0 -0 -0 -0 -0 -0 -0 -0 -0 -0 -0 -0 -0 -0 -0 -0 -0 -0 -0 -0 -0 -0 -0 -0 -0 -0 -0 -0 -0 -0 -0 -0 -0 -0 -0 -0
-0 -0 -0 -0 -0 -0 -0 -0 -0 -0 -0 -0 -0 -0 -0 -0 -0 -0 -0 -0 -0 -0 -0 -0 -0 -0 -0 -0 -0 -0 -0 -0 -0 -0 -0 -0 -0 -0 -0 -0 -0 -0 -0 -0 -0 -0 -0 -0 -0
-0 -0 -0 -0 -0 -0 -0 -0 -0 -0 -0 -0 -0 -0 -0 -0 -0 -0 -0 -0 -0 -0 -0 -0 -0 -0 -0 -0 -0 -0 -0 -0 -0 -0 -0 -0 -0 -0 -0 -0 -0 -0 -0 -0 -0 -0 -0 -0 -0
-0 -0 -0 -0 -0 -0 -0 -0 -0 -0 -0 -0 -0 -0 -0 -0 -0 -0 -0 -0 -0 -0 -0 -0 -0 -0 -0 -0 -0 -0 -0 -0 -0 -0 -0 -0 -0 -0 -0 -0 -0 -0 -0 -0 -0 -0 -0 -0 -0
-0 -0 -0 -0 -0 -0 -0 -0 -0 -0 -0 -0 -0 -0 -0 -0 -0 -0 -0 -0 -0 -0 -0 -0 -0 -0 -0 -0 -0 -0 -0 -0 -0 -0 -0 -0 -0 -0 -0 -0 -0 -0 -0 -0 -0 -0 -0 -0 -0
-0 -0 -0 -0 -0 -0 -0 -0 -0 -0 -0 -0 -0 -0 -0 -0 -0 -0 -0 -0 -0 -0 -0 -0 -0 -0 -0 -0 -0 -0 -0 -0 -0 -0 -0 -0 -0 -0 -0 -0 -0 -0 -0 -0 -0 -0 -0 -0 -0
-0 -0 -0 -0 -0 -0 -0 -0 -0 -0 -0 -0 -0 -0 -0 -0 -0 -0 -0 -0 -0 -0 -0 -0 -0 -0 -0 -0 -0 -0 -0 -0 -0 -0 -0 -0 -0 -0 -0 -0 -0 -0 -0 -0 -0 -0 -0 -0 -0
-0 -0 -0 -0 -0 -0 -0 -0 -0 -0 -0 -0 -0 -0 -0 -0 -0 -0 -0 -0 -0 -0 -0 -0 -0 -0 -0 -0 -0 -0 -0 -0 -0 -0 -0 -0 -0 -0 -0 -0 -0 -0 -0 -0 -0 -0 -0 -0 -0
-0 -0 -0 -0 -0 -0 -0 -0 -0 -0 -0 -0 -0 -0 -0 -0 -0 -0 -0 -0 -0 -0 -0 -0 -0 -0 -0 -0 -0 -0 -0 -0 -0 -0 -0 -0 -0 -0 -0 -0 -0 -0 -0 -0 -0 -0 -0 -0 -0
-0 -0 -0 -0 -0 -0 -0 -0 -0 -0 -0 -0 -0 -0 -0 -0 -0 -0 -0 -0 -0 -0 -0 -0 -0 -0 -0 -0 -0 -0 -0 -0 -0 -0 -0 -0 -0 -0 -0 -0 -0 -0 -0 -0 -0 -0 -0 -0 -0
-0 -0 -0 -0 -0 -0 -0 -0 -0 -0 -0 -0 -0 -0 -0 -0 -0 -0 -0 -0 -0 -0 -0 -0 -0 -0 -0 -0 -0 -0 -0 -0 -0 -0 -0 -0 -0 -0 -0 -0 -0 -0 -0 -0 -0 -0 -0 -0 -0
-0 -0 -0 -0 -0 -0 -0 -0 -0 -0 -0 -0 -0 -0 -0 -0 -0 -0 -0 -0 -0 -0 -0 -0 -0 -0 -0 -0 -0 -0 -0 -0 -0 -0 -0 -0 -0 -0 -0 -0 -0 -0 -0 -0 -0 -0 -0 -0 -0
-0 -0 -0 -0 -0 -0 -0 -0 -0 -0 -0 -0 -0 -0 -0 -0 -0 -0 -0 -0 -0 -0 -0 -0 -0 -0 -0 -0 -0 -0 -0 -0 -0 -0 -0 -0 -0 -0 -0 -0 -0 -0 -0 -0 -0 -0 -0 -0 -0
-0 -0 -0 -0 -0 -0 -0 -0 -0 -0 -0 -0 -0 -0 -0 -0 -0 -0 -0 -0 -0 -0 -0 -0 -0 -0 -0 -0 -0 -0 -0 -0 -0 -0 -0 -0 -0 -0 -0 -0 -0 -0 -0 -0 -0 -0 -0 -0 -0
Wind_Speed
15 15 16 16 16 18 16 15 15 16 17 17 17 16 16 17 15 14 16 19 21 22 22 22 22 20 19 21 22 22 22 22 24 24 26 25 23 20 14 9 17 19 20 23 26 27 29 31 32
14 14 15 15 17 17 15 13 14 15 16 19 20 18 17 15 15 16 14 20 21 22 22 22 23 23 23 23 23 23 24 24 25 25 26 28 29 30 29 26 24 22 22 22 27 28 29 28 29
13 15 15 16 16 16 16 13 14 15 15 15 16 17 15 14 14 15 15 18 20 21 22 22 23 24 24 24 24 24 25 25 26 27 27 28 29 30 30 30 30 30 31 28 27 27 29 30 30
15 15 16 17 16 16 16 13 13 13 13 14 14 15 15 13 12 13 15 17 19 21 22 23 24 25 26 26 26 26 26 26 27 28 29 30 30 30 31 32 33 33 32 33 33 30 29 29 31
16 16 17 17 17 16 14 14 10 11 13 12 12 12 12 13 12 13 15 17 19 21 23 23 25 26 26 26 26 26 27 27 28 29 30 30 30 32 32 33 34 35 35 36 36 35 33 32 30
16 16 16 15 16 15 15 14 11 12 12 12 14 12 11 9 10 12 14 17 18 20 23 24 25 26 27 27 27 28 28 29 29 30 31 31 32 33 33 35 35 35 36 37 38 38 37 34 33
15 16 14 14 14 16 14 12 12 10 11 12 11 12 13 7 7 11 13 15 18 20 22 23 25 25 27 27 28 29 29 30 30 31 32 32 33 33 36 36 36 37 38 38 38 39 39 37 36
16 16 15 14 12 15 11 13 14 12 13 15 14 13 12 3 5 9 12 14 17 18 20 22 24 25 26 27 28 29 30 31 31 32 33 33 33 35 36 37 38 38 39 40 39 39 40 41 40
16 15 14 12 11 13 9 10 14 15 14 14 14 15 16 4 5 8 10 12 16 19 21 22 24 25 26 26 28 29 30 32 32 32 33 34 34 35 36 38 39 39 40 41 40 40 41 41 41
17 16 13 13 11 12 10 9 10 13 13 13 15 14 9 4 4 5 9 12 15 19 20 23 25 26 26 26 28 29 30 32 32 32 33 34 35 36 37 38 39 41 41 41 40 42 42 41 41
17 17 14 12 10 11 10 10 9 12 11 9 6 3 3 4 5 7 9 12 14 16 19 22 24 26 26 27 28 29 30 31 32 33 34 35 35 37 38 39 39 39 41 40 42 42 42 43 44
17 15 14 14 11 13 11 14 10 5 9 18 7 2 3 4 6 7 9 10 14 17 20 22 25 26 26 27 28 29 30 31 33 34 35 36 37 38 40 40 41 41 40 41 42 43 43 45 45
14 15 14 12 10 9 13 13 11 8 8 16 9 4 5 6 7 9 9 12 14 16 19 21 23 25 25 26 27 28 30 32 33 35 36 36 38 39 40 41 41 42 42 43 44 44 44 45 46
15 13 11 11 8 10 11 16 17 20 16 14 8 6 6 7 8 10 11 12 14 15 17 19 22 24 24 26 27 29 30 31 33 34 35 36 38 39 40 41 41 42 43 44 45 45 44 45 46
17 17 19 16 15 14 14 17 12 17 16 14 11 10 10 9 9 9 9 11 13 14 17 19 21 24 26 26 28 29 30 32 34 35 36 38 39 39 40 39 41 42 44 45 42 43 42 43 43
22 21 21 19 19 18 17 13 17 18 14 15 13 12 12 12 12 12 11 12 13 14 17 19 21 23 25 26 27 28 29 31 32 35 36 39 40 40 40 40 42 43 43 43 42 42 44 47 47
24 25 24 26 17 20 16 18 19 20 16 17 14 13 13 14 13 12 11 12 12 13 16 18 19 21 23 24 26 27 28 30 32 34 37 40 40 40 40 41 42 42 41 42 44 45 46 48 48
28 29 25 25 23 22 22 19 18 21 18 18 16 16 15 15 15 12 11 11 12 13 16 18 19 22 25 25 29 28 29 31 31 36 38 41 41 41 42 43 44 44 44 45 46 48 48 49 50
25 27 28 27 25 29 24 25 21 24 21 19 18 17 17 16 15 13 11 11 12 14 17 19 21 24 25 28 32 32 33 34 35 37 40 42 41 43 44 44 45 44 46 47 47 49 51 50 49
25 31 34 32 29 27 31 28 26 22 19 16 18 18 17 16 15 14 13 12 13 15 17 20 23 25 25 27 29 30 33 33 36 37 42 41 41 43 44 43 44 45 46 45 48 48 52 52 48
29 32 36 36 36 32 39 40 28 26 23 17 15 17 18 16 16 15 14 13 14 16 17 20 23 24 24 25 29 32 33 33 36 41 43 41 43 44 43 41 43 45 44 46 49 51 50 57 51
37 30 30 34 39 41 34 45 34 30 20 20 19 19 19 16 15 15 16 15 14 15 16 18 22 24 24 25 30 33 36 40 41 45 44 45 44 44 42 41 42 45 43 48 50 47 47 50 57
34 29 32 33 35 41 34 36 37 26 23 23 22 23 22 19 16 15 16 15 14 14 15 17 21 24 24 26 29 34 37 40 43 45 46 46 45 42 42 41 43 46 46 47 49 48 48 45 50
26 32 34 33 34 41 34 29 34 29 24 28 25 32 25 23 19 15 13 13 14 15 16 17 21 24 25 27 30 35 39 45 47 49 49 49 48 45 42 42 45 46 46 47 48 47 45 49 48
28 31 38 41 37 39 30 34 34 31 28 28 31 31 30 24 19 15 12 13 14 16 17 18 21 24 26 29 32 37 41 44 47 48 49 50 49 47 45 46 47 46 45 45 46 46 49 48 46
24 24 29 42 44 48 35 41 42 25 26 29 29 30 31 25 20 16 13 13 14 15 15 16 21 24 26 30 35 38 41 44 45 45 48 48 47 48 47 47 46 46 46 45 46 47 46 45 42
27 29 26 34 37 46 42 41 39 33 31 28 31 31 31 27 21 18 14 15 15 15 15 17 21 24 28 32 36 39 41 43 45 46 45 45 46 47 48 47 48 47 46 47 48 47 46 43 40
26 21 31 29 42 47 47 46 42 36 31 31 31 31 34 27 23 19 16 15 15 15 15 17 21 25 30 34 37 39 42 43 44 44 45 46 46 47 48 48 48 49 48 48 48 47 43 42 37
30 33 31 31 34 45 50 43 31 37 33 33 32 35 32 28 24 21 19 15 14 15 14 18 22 27 31 34 36 40 42 43 43 44 43 45 46 46 48 49 49 49 50 48 47 45 43 39 38
31 34 31 41 44 41 41 50 30 30 30 36 41 37 33 28 26 23 20 16 16 15 15 18 22 27 31 33 38 41 42 42 43 45 45 47 48 47 48 48 49 50 49 48 46 44 39 37 47
Wind_Direction
61 69 71 50 46 38 69 96 94 86 76 70 67 74 80 70 85 93 84 331 328 335 328 328 334 330 321 335 345 344 344 337 325 326 318 323 335 343 355 2 344 339 333 328 319 314 308 297 295
28 37 31 34 359 11 39 81 84 67 69 67 53 61 56 61 74 59 56 317 330 340 337 334 347 348 348 344 339 337 336 337 336 332 328 321 315 311 313 322 325 331 330 328 319 314 312 310 306
14 13 1 357 359 2 10 25 35 43 72 51 42 41 53 61 59 53 37 6 343 342 342 343 351 350 346 344 341 339 338 335 332 333 331 329 326 321 316 315 316 313 311 316 319 318 312 310 305
353 352 358 344 349 356 359 15 24 35 26 18 34 31 39 46 48 43 26 13 6 350 347 347 350 353 350 347 344 340 337 334 332 329 328 326 325 326 322 319 313 310 310 306 308 310 311 311 307
351 351 342 344 343 347 357 359 26 18 14 17 16 17 31 29 39 32 21 11 4 358 351 351 356 354 350 347 344 341 339 336 336 330 328 325 324 322 321 320 317 313 308 303 301 303 305 306 307
348 350 346 345 340 345 349 354 359 356 2 7 355 6 13 36 41 23 12 6 1 359 356 354 352 354 352 349 345 342 340 338 335 331 331 328 324 322 319 317 316 315 311 308 304 299 300 303 302
359 356 357 352 346 339 346 0 354 356 353 350 4 355 354 23 26 13 9 2 358 355 354 353 351 351 352 350 348 346 343 341 338 336 334 328 326 325 318 317 314 312 310 308 307 305 300 299 300
17 10 3 1 358 348 3 354 352 348 343 342 344 351 350 29 29 12 3 0 356 355 356 356 354 352 351 349 347 347 345 344 344 341 338 335 330 326 324 321 315 312 310 307 305 304 303 300 295
28 21 16 20 24 9 17 3 352 346 343 336 334 336 338 54 26 8 1 359 355 352 353 355 355 354 351 351 350 348 347 344 343 341 339 339 337 331 327 323 319 315 310 308 306 305 303 301 298
33 23 36 34 38 29 33 17 5 349 340 332 330 332 353 23 10 353 346 345 345 344 347 350 350 349 347 350 348 348 351 348 347 345 342 340 338 334 329 326 322 316 312 310 307 303 302 301 299
39 23 34 31 38 33 30 16 13 351 333 324 301 306 355 347 337 332 335 339 344 348 347 345 345 345 345 345 345 346 349 349 347 344 341 340 338 335 332 329 327 324 317 312 310 307 302 299 298
29 40 36 32 40 25 18 10 1 333 332 339 328 296 309 304 311 319 326 334 339 340 340 342 343 344 344 345 345 344 346 348 345 343 341 340 337 334 330 328 326 324 322 317 312 308 305 299 297
35 31 28 30 28 22 12 360 354 336 339 341 345 319 289 290 302 314 321 327 332 335 338 339 342 343 344 345 344 345 345 346 344 343 342 342 339 336 332 328 326 323 322 319 314 310 306 302 298
20 14 10 8 8 3 1 354 354 352 352 342 334 307 298 294 300 314 315 319 328 334 339 344 344 344 346 345 344 344 345 344 344 343 343 342 338 335 334 331 329 325 322 318 315 312 309 304 300
2 0 356 1 3 2 5 345 343 350 354 343 330 313 304 293 294 292 304 314 324 332 338 340 340 340 340 342 342 343 342 342 342 342 342 341 338 337 337 335 331 326 324 321 320 316 313 308 303
347 350 350 354 351 352 354 333 349 348 346 333 324 311 297 290 290 297 306 315 322 326 331 336 337 337 338 340 342 342 341 342 343 342 341 338 337 338 337 335 331 327 326 325 322 317 312 307 304
344 337 339 339 348 343 340 328 343 345 337 328 316 302 291 287 285 292 298 308 315 321 327 331 334 335 337 340 341 341 342 343 342 341 339 336 337 337 336 334 331 330 329 326 322 317 313 308 304
330 331 333 329 337 333 325 297 311 327 321 311 309 307 295 283 273 278 285 301 311 318 325 330 332 331 333 337 337 338 339 340 340 338 336 335 335 335 333 331 331 331 328 325 321 317 314 308 304
330 328 325 325 326 322 313 311 301 324 316 308 307 307 294 277 282 275 276 294 307 313 319 325 329 329 331 332 333 334 335 337 337 335 334 334 334 332 330 329 330 330 325 323 320 317 313 310 306
326 324 322 323 328 322 319 305 308 305 311 306 310 310 299 292 276 266 270 286 296 306 315 320 324 327 329 332 334 335 335 335 334 334 333 333 332 330 329 330 330 328 325 323 320 317 314 309 308
320 320 321 319 323 321 321 317 323 331 329 323 322 322 316 295 278 273 269 275 293 301 309 315 322 327 330 332 333 334 334 335 334 332 332 332 330 328 330 330 329 327 325 323 320 317 314 307 306
315 322 320 321 321 318 329 313 320 325 328 328 328 328 322 310 294 273 265 271 286 299 309 314 322 328 330 332 332 332 332 331 331 330 330 329 329 329 331 329 328 326 325 322 321 318 314 310 304
315 322 320 319 317 317 319 314 321 332 328 330 331 332 324 315 301 281 265 269 283 299 306 314 323 328 330 331 331 331 330 330 330 330 329 329 328 330 331 329 327 326 324 323 321 317 314 310 306
319 317 318 318 317 310 317 312 316 325 327 333 334 333 330 323 311 296 276 273 284 299 307 314 321 326 329 331 331 330 329 328 329 329 329 328 329 330 330 328 327 325 324 322 321 318 314 310 306
310 314 313 313 312 309 321 311 302 313 315 322 325 330 330 327 319 302 275 272 283 294 304 312 319 324 328 330 329 329 328 329 329 330 328 327 328 329 328 328 327 325 323 321 320 316 313 310 306
306 305 305 308 310 311 315 306 314 318 322 324 327 327 329 326 321 304 280 278 285 294 301 309 319 323 328 329 329 329 330 330 330 330 329 328 328 328 328 327 326 324 322 320 318 315 313 311 307
307 300 307 304 309 308 309 309 310 309 315 321 323 325 326 323 318 310 291 286 288 295 302 311 319 324 327 328 328 330 330 331 330 330 330 329 329 328 327 326 324 323 321 319 318 315 312 309 305
300 308 307 307 306 304 305 303 301 313 317 318 321 324 325 323 317 309 294 286 288 296 304 314 320 323 326 327 329 330 330 331 331 331 331 330 329 328 327 326 324 322 320 319 317 314 311 307 302
294 294 301 303 298 301 304 301 319 317 317 317 317 321 322 320 316 307 298 288 287 296 301 311 318 322 325 328 329 330 331 331 331 331 331 330 329 329 327 326 324 322 320 319 317 313 310 304 298
291 289 287 291 299 297 296 288 325 320 316 317 316 317 317 316 313 305 297 288 288 289 296 308 317 322 325 327 328 329 330 332 332 332 332 331 330 330 328 327 325 323 321 320 317 313 309 302 291